Theta_e
361 362 361 361 360 359 359 358 357 358 360 358 357 360 359 364 365 366 367 367 367 367 369 371 370 370 369 370 373 371 370 372 369 370 371 368 367 364 362 363 364 363
362 363 363 362 361 361 361 360 361 358 360 362 360 360 364 365 366 366 365 365 367 365 367 367 369 370 369 370 370 369 370 370 368 365 367 367 367 365 363 364 363 365
363 362 361 360 357 360 358 360 363 361 358 359 360 362 361 364 365 367 366 365 363 361 364 366 367 368 368 369 370 368 365 368 367 365 366 366 365 365 366 362 363 364
364 362 360 359 358 358 360 359 360 361 360 357 358 358 358 357 361 364 366 367 364 364 363 365 365 364 367 367 368 366 365 366 366 367 366 368 367 366 367 367 364 364
364 362 360 360 359 360 361 359 357 358 359 357 358 361 362 362 363 362 363 365 367 364 365 365 366 364 365 366 367 365 363 363 365 368 366 365 367 366 363 366 367 364
364 365 364 361 361 360 358 358 359 357 358 355 357 358 360 363 362 360 360 361 361 359 357 360 363 362 361 364 366 365 362 359 359 365 365 365 363 362 359 363 364 363
362 363 362 361 359 360 359 360 360 359 355 356 358 358 359 360 361 360 361 362 359 358 356 359 364 362 362 364 366 366 366 366 364 364 366 364 365 364 361 361 363 363
362 362 363 362 360 358 359 358 359 358 359 358 355 358 360 357 360 359 359 359 359 359 362 360 363 368 361 360 363 364 364 359 362 366 367 366 365 365 366 362 363 364
361 362 362 361 359 357 356 356 356 357 359 358 355 354 359 359 356 357 359 361 360 359 362 363 365 365 363 361 361 364 363 359 355 360 363 362 361 364 362 364 363 364
361 361 360 360 358 357 355 355 354 355 358 357 355 353 352 358 358 357 359 362 362 361 362 365 364 364 363 362 363 363 363 363 362 361 361 361 359 359 358 360 359 360
359 359 358 359 358 356 355 355 354 353 356 356 355 352 352 353 358 359 359 361 360 360 361 363 362 363 363 359 360 362 363 360 361 362 362 361 360 359 359 359 358 357
358 358 357 357 357 356 355 355 354 354 354 356 356 354 353 351 354 357 357 360 362 360 360 362 364 363 364 362 357 358 360 360 359 361 361 363 361 359 359 360 357 356
357 357 358 357 358 357 356 356 355 354 354 353 356 356 353 351 350 355 358 358 362 362 357 360 363 362 364 365 362 359 359 360 357 356 359 360 361 358 356 357 358 357
357 358 358 360 359 361 359 357 356 356 356 356 357 356 354 353 351 350 354 357 357 360 360 359 361 362 364 366 366 361 358 359 360 356 353 355 357 357 356 353 353 355
358 358 359 361 360 361 360 359 357 358 358 358 359 357 355 355 354 352 352 355 356 357 358 357 354 357 358 361 363 363 361 356 358 358 355 353 354 353 355 357 355 351
359 360 360 361 360 361 362 361 359 359 357 358 358 358 359 359 358 356 354 353 355 356 357 354 353 352 355 345 350 359 361 354 354 357 359 357 356 356 353 352 353 354
359 360 361 361 362 362 363 362 359 358 359 360 359 359 360 361 358 356 355 354 353 354 355 354 352 349 342 335 336 341 355 358 357 357 360 361 358 358 358 354 352 353
358 362 361 361 362 363 363 364 362 360 359 361 359 358 361 359 357 357 358 355 353 354 353 354 355 344 332 331 333 333 342 354 352 354 354 356 359 356 355 355 355 352
361 360 361 360 362 362 363 363 363 360 359 358 357 359 358 359 360 357 358 357 356 355 353 354 354 341 330 328 330 330 331 344 351 349 349 350 353 356 357 358 357 355
360 359 359 361 362 362 362 361 360 361 358 357 357 359 359 357 357 358 358 359 358 357 357 355 355 343 329 325 326 326 328 335 353 350 349 349 351 353 354 356 359 359
359 359 359 360 362 362 362 361 360 361 359 357 356 356 357 358 357 358 358 358 357 357 356 355 354 337 327 322 322 322 325 331 352 350 350 351 351 353 355 355 358 360
357 358 360 360 361 361 362 361 361 361 360 359 358 356 356 356 358 359 358 357 357 357 355 355 356 333 326 322 319 320 323 342 350 352 351 351 352 353 354 357 359 359
350 352 357 359 362 362 362 360 360 360 361 362 359 357 354 353 356 357 360 359 358 358 357 357 357 341 324 319 318 318 325 348 351 351 352 352 352 354 355 356 358 362
342 347 353 356 358 358 358 358 358 358 358 360 358 357 355 353 355 356 358 360 359 359 358 357 358 348 323 318 316 316 331 350 353 352 353 354 354 356 356 357 359 359
342 343 346 353 356 356 357 357 357 358 358 358 357 358 357 358 357 356 356 359 359 359 355 356 359 351 324 318 316 314 330 353 353 354 354 354 354 355 358 358 359 359
341 342 343 345 351 357 359 358 358 357 357 356 357 357 357 357 357 357 356 358 361 358 358 358 358 360 359 316 315 313 318 351 355 354 354 355 357 356 358 360 360 361
Wind_Speed
11 10 10 10 9 8 8 9 9 9 8 7 7 7 7 6 6 6 6 6 7 7 7 6 6 6 5 5 4 5 4 4 4 3 4 4 4 4 3 3 3 3
13 12 10 9 8 8 8 8 8 8 8 8 7 6 6 6 7 7 7 7 7 7 7 7 7 7 6 5 6 5 5 5 6 4 4 5 5 4 4 4 4 3
13 13 13 12 11 12 12 10 8 8 8 8 9 7 6 7 7 7 7 7 7 7 7 7 7 7 7 6 5 6 6 5 6 6 5 5 5 5 4 4 4 4
14 14 13 14 13 11 11 10 9 8 8 8 9 8 8 7 7 8 7 7 7 7 6 7 7 7 7 7 7 6 6 6 6 5 5 4 5 5 5 4 4 4
15 14 13 13 12 11 10 11 11 10 10 9 8 8 7 7 7 8 8 7 7 8 7 7 7 7 7 7 7 7 6 6 6 6 5 6 5 5 5 5 4 5
14 13 13 12 12 12 11 12 12 11 10 11 10 8 9 9 9 9 9 9 9 9 8 8 8 8 8 7 7 7 7 7 6 7 7 6 6 6 5 5 5 6
14 14 15 13 14 13 13 12 11 11 11 10 9 10 9 9 10 10 9 9 9 8 9 8 7 7 7 6 7 7 7 7 6 6 7 6 6 6 6 5 6 6
14 14 14 13 14 13 13 12 12 11 11 10 11 10 10 10 10 10 10 10 10 9 9 8 8 8 8 7 7 7 8 7 7 8 8 7 6 6 6 6 6 7
14 13 13 15 15 14 15 14 13 12 11 11 11 11 10 10 11 11 10 10 10 9 9 9 9 9 8 8 8 8 8 8 7 8 8 8 8 8 7 7 7 7
14 14 15 15 15 14 15 15 13 12 12 12 12 11 11 10 11 11 10 10 10 10 10 9 9 9 9 9 9 9 9 9 8 8 7 8 8 7 7 7 7 7
15 15 15 15 15 14 16 15 14 13 12 13 12 12 12 11 10 11 11 11 11 11 11 11 10 10 10 10 9 9 10 9 9 9 9 9 8 8 8 7 7 8
16 15 16 16 16 15 15 15 14 14 13 12 13 13 13 12 11 10 11 12 12 11 11 11 10 10 11 11 11 11 10 10 9 9 9 9 9 9 9 9 9 9
15 15 14 15 14 14 13 13 14 14 14 14 12 13 13 13 13 12 11 12 12 12 12 11 11 11 10 11 11 10 10 10 10 10 10 9 10 10 10 10 10 9
13 13 13 13 12 12 13 13 13 13 13 13 12 13 13 14 14 14 12 12 12 12 12 11 11 11 11 11 11 11 11 11 11 11 11 11 11 10 11 11 10 10
11 11 11 11 11 11 12 12 12 12 12 12 12 12 11 13 13 14 13 13 12 12 12 12 12 12 11 11 11 12 12 12 12 11 12 11 11 11 11 11 11 11
10 10 10 11 11 12 12 12 12 12 12 12 12 12 11 10 11 12 13 13 12 12 12 12 12 11 11 14 13 11 11 11 11 11 11 11 11 11 11 12 12 11
10 10 10 11 11 11 11 11 12 11 10 11 11 11 11 10 10 12 13 13 13 13 13 12 12 12 14 15 16 15 12 11 10 10 11 11 12 11 11 12 12 12
11 10 11 11 10 10 10 9 8 9 10 10 10 11 11 11 12 12 12 13 12 13 14 13 13 13 14 16 17 17 15 13 12 11 11 11 12 12 12 12 12 12
10 11 11 12 11 11 10 9 10 11 12 12 13 12 11 11 12 12 12 13 13 13 14 14 13 14 14 16 16 17 17 15 13 13 13 13 12 12 12 11 11 10
10 11 11 11 11 11 11 11 12 12 13 13 12 12 12 12 13 14 13 12 13 13 13 13 14 13 15 16 17 17 17 14 14 15 14 14 13 13 12 12 12 11
9 9 11 12 11 11 11 12 13 13 13 12 12 12 12 12 13 13 13 13 14 14 13 14 13 15 14 16 17 18 17 14 13 13 13 14 14 14 13 13 12 11
8 9 10 11 12 11 12 12 12 12 12 11 11 11 11 11 11 11 13 13 14 14 14 14 14 15 15 15 16 17 16 10 12 12 13 13 13 14 13 12 13 13
7 10 10 9 10 10 12 12 12 12 11 10 11 11 12 12 12 11 11 12 14 13 14 14 14 14 15 17 17 17 13 10 11 12 12 14 14 14 13 13 13 13
9 9 9 9 9 11 12 12 12 12 12 11 12 12 12 12 11 11 12 12 13 14 14 14 15 14 16 17 18 18 16 12 11 12 12 12 13 14 13 13 14 16
8 8 8 9 11 12 12 11 11 11 11 11 12 12 12 11 11 11 12 12 13 14 13 15 15 14 15 17 18 18 16 12 12 11 12 13 13 13 13 13 14 13
7 8 7 8 9 10 12 13 12 12 13 13 13 12 13 12 13 12 13 11 8 9 12 15 16 15 11 18 18 19 20 13 12 11 13 14 13 12 11 13 13 13
Wind_Direction
202 204 206 208 210 213 213 209 210 208 214 218 211 206 213 206 213 210 207 203 204 215 213 214 210 212 214 214 219 226 236 222 243 208 216 225 217 231 240 239 252 254
200 203 205 208 209 211 215 215 210 215 207 218 224 218 209 210 203 209 207 211 210 215 218 216 214 215 219 216 206 223 226 230 234 225 218 225 236 240 241 236 247 255
199 200 203 207 210 209 212 210 213 213 215 212 214 222 216 208 211 205 211 213 216 220 211 221 219 216 219 221 216 221 222 230 240 244 226 229 242 241 258 257 232 216
200 202 205 210 214 212 212 215 210 216 220 214 217 214 217 221 210 209 210 212 220 221 221 218 224 221 216 220 220 227 228 231 237 248 248 240 241 250 246 249 260 250
200 202 207 210 213 215 215 215 217 211 215 219 216 214 211 216 212 214 213 209 216 220 215 219 217 224 221 222 221 229 228 227 223 226 236 240 241 240 249 248 253 254
200 202 205 208 209 210 213 214 214 216 215 215 216 215 210 205 213 220 216 217 212 218 222 214 215 219 219 216 222 229 231 232 219 214 227 236 246 243 241 232 229 239
197 199 202 205 208 208 213 215 215 218 219 220 211 215 215 211 212 217 221 219 223 222 223 218 214 218 216 218 220 224 227 235 245 230 227 233 234 245 250 241 240 244
202 198 200 202 206 207 211 213 216 215 217 215 217 213 214 218 215 216 214 218 221 220 221 221 211 212 219 218 221 224 228 226 224 229 232 237 244 240 234 244 238 238
201 200 199 202 204 207 212 214 213 215 212 214 217 216 210 219 218 220 218 215 221 222 216 218 214 214 219 224 223 224 229 238 233 225 228 234 231 231 237 236 238 239
200 203 202 203 206 208 212 215 216 212 209 214 216 220 215 211 220 222 217 215 218 218 216 217 213 216 219 219 220 223 228 230 237 237 233 232 236 239 233 231 238 239
203 203 205 206 210 212 213 214 216 216 209 213 215 218 220 214 210 216 218 214 217 217 216 215 216 216 219 224 222 222 224 229 231 230 231 234 237 238 242 243 242 244
203 204 207 208 211 214 215 215 216 217 215 209 213 215 215 218 212 210 212 213 217 220 219 218 217 217 217 221 225 224 222 226 226 228 230 232 234 234 235 236 239 239
207 206 206 209 209 213 215 216 217 217 218 216 210 214 213 214 213 212 212 215 215 218 221 219 219 219 218 218 224 227 228 226 230 227 229 232 234 237 238 235 236 238
218 212 212 209 210 209 216 218 218 218 218 218 214 213 216 216 218 213 211 215 217 218 219 219 217 218 216 219 221 223 223 225 226 232 233 233 237 238 240 242 240 240
218 219 215 212 211 211 213 217 219 217 216 217 215 218 218 221 221 222 217 216 218 218 219 219 220 220 219 216 217 218 224 227 226 229 232 237 239 241 238 239 244 247
214 215 211 209 207 209 210 212 217 218 217 216 218 219 222 223 225 224 227 222 219 219 219 220 222 225 216 211 214 220 219 228 229 231 235 238 238 239 243 241 241 246
214 211 210 209 207 208 209 209 214 219 220 220 220 221 223 221 223 225 226 228 224 223 222 223 226 226 210 196 204 214 225 227 230 233 231 234 236 237 242 246 246 245
226 210 205 208 207 209 209 210 212 219 227 227 226 225 222 225 225 226 228 230 230 229 229 229 231 226 204 195 200 205 212 227 234 235 236 235 236 239 239 241 244 245
227 219 212 208 206 207 206 203 203 210 217 223 227 228 230 227 230 230 228 229 234 234 235 235 237 222 203 198 200 203 207 217 236 241 242 242 240 239 240 240 242 242
230 233 232 221 209 207 205 206 210 211 218 225 228 226 225 228 230 231 231 230 231 232 236 241 240 232 202 199 200 202 203 204 231 237 242 245 246 245 242 239 235 238
241 240 238 233 222 210 208 209 212 218 221 223 226 225 226 227 232 234 232 231 231 230 233 236 237 232 209 200 201 201 200 198 225 234 240 242 243 242 244 245 242 235
289 248 237 233 227 216 210 212 216 217 219 222 231 236 234 232 229 235 240 237 233 234 236 237 241 223 209 201 200 202 191 199 218 228 236 242 242 241 241 239 238 238
322 324 314 269 236 226 228 229 227 224 224 223 226 231 238 238 239 237 236 241 243 239 237 241 243 226 204 202 198 194 180 208 216 225 231 235 240 240 239 239 237 234
333 322 293 283 261 247 244 246 245 243 241 237 238 235 231 237 241 243 245 243 242 244 242 240 242 232 202 202 200 186 189 205 214 221 230 231 235 234 236 239 237 232
320 314 317 295 267 256 254 250 247 247 248 245 241 242 243 236 232 238 242 243 242 245 237 239 248 244 203 202 199 188 193 212 217 224 229 232 233 233 231 235 237 230
307 308 303 308 307 285 262 252 248 246 243 241 242 241 240 237 232 231 233 237 243 252 257 251 244 247 213 196 195 191 194 207 218 223 231 231 232 234 234 232 233 237